Regional Weather Roundup
Issued by NWS Columbia, SC

Home | Current Version | Previous Version | Text Only | Print | Product List | Glossary On
Versions: 1 2 3 4 5 6 7 8 9 10 11 12 13 14 15 16 17 18 19 20 21 22 23 24 25 26 27 28 29 30 31 32 33 34 35 36 37 38 39 40 41 42 43 44 45 46 47 48 49 50
193
ASUS42 KCAE 260210
RWRCAE
REGIONAL WEATHER ROUNDUP
NATIONAL WEATHER SERVICE COLUMBIA SC
900 PM EST SUN FEB 25 2018

NOTE: "FAIR" INDICATES FEW OR NO CLOUDS BELOW 12,000 FEET WITH NO
SIGNIFICANT WEATHER AND/OR OBSTRUCTIONS TO VISIBILITY.

NOT ALL STATIONS ARE QUALITY CONTROLLED BY THE NATIONAL
WEATHER SERVICE. USE DATA WITH CAUTION...ESPECIALLY
DEWPOINT OBSERVATIONS.

SCZ001>056-GAZ040-063>065-077-260300-
...UPSTATE SOUTH CAROLINA...

CITY           SKY/WX    TMP DP  RH WIND       PRES   REMARKS
ANDERSON       LGT RAIN  63  55  75 W7        30.15R
LIBERTY        CLOUDY    60  58  94 W7          N/A
SPARTANBURG    CLOUDY    63  55  77 W6        30.12R
CLEMSON        LGT RAIN  61  55  81 W12       30.16R
GREENVILLE     CLOUDY    63  55  75 W9        30.14R
GREENWOOD      CLOUDY    63  59  87 SW9       30.14S
GREER          CLOUDY    63  54  72 W8        30.13R
ROCK HILL      CLOUDY    64  58  80 SW14      30.08F
CHESTER        CLOUDY    63  59  88 S6        30.11F
LAURENS        CLOUDY    63  59  88 SW6       30.12R


...CENTRAL SOUTH CAROLINA...

CITY           SKY/WX    TMP DP  RH WIND       PRES   REMARKS
COLUMBIA APT   CLOUDY    65  63  93 SW5       30.12S
COLUMBIA OWENS CLOUDY    65  60  84 S3        30.13F
MCENTIRE ANGB  CLOUDY    61  61  99 SE7       30.13S
ORANGEBURG     CLOUDY    66  60  81 S5        30.15R
SUMTER SHAW    CLOUDY    63  59  86 S5        30.11S
NEWBERRY       MOCLDY    63  61  94 SW5       30.15S
AIKEN          CLOUDY    61  61 100 S3        30.17S
BARNWELL         N/A     66  64  94 CALM      30.16R
MANNING        CLOUDY    63  46  55 MISG      30.15R
CAMDEN         CLOUDY    63  61  94 CALM      30.12S
LANCASTER      CLOUDY    63  63 100 S5        30.10F
WINNSBORO      CLOUDY    63  61  94 S6        30.11F


...EASTERN AND COASTAL SOUTH CAROLINA...

CITY           SKY/WX    TMP DP  RH WIND       PRES   REMARKS
MYRTLE BEACH   CLOUDY    66  60  81 NW5       30.14R
N MYRTLE BCH   MOCLDY    63  61  93 CALM      30.11S
CONWAY         CLOUDY    61  59  94 CALM      30.14R
MARION         MOCLDY    59  54  82 SW3       30.14R
HARTSVILLE     CLOUDY    59  59 100 CALM      30.10F
FLORENCE       CLOUDY    63  56  78 SW3       30.13S
DARLINGTON     MOCLDY    61  58  90 S6        30.12S
CHARLESTON APT CLOUDY    67  65  93 W5        30.14R
MOUNT PLEASANT CLOUDY    66  66 100 CALM      30.13S
WALTERBORO     CLOUDY    64  61  88 CALM      30.17R
BEAUFORT       CLOUDY    68  61  78 SW3       30.15


...EASTERN GEORGIA...

CITY           SKY/WX    TMP DP  RH WIND       PRES   REMARKS
AUGUSTA BUSH F CLOUDY    65  56  72 S8        30.14S
AUGUSTA DANIEL CLOUDY    67  57  70 S5        30.15S
THOMSON        CLOUDY    63  58  84 W3        30.21R
WASHINGTON     FAIR      63  59  88 CALM      30.16R
CLAXTON        CLOUDY    66  60  81 W3        30.16R
SYLVANIA       CLOUDY    70  54  56 CALM      30.17S
STATESBORO     CLOUDY    67  53  60 N6        30.16S
SAVANNAH       CLOUDY    67  56  67 NE6       30.15F


...SOUTHERN NORTH CAROLINA...

CITY           SKY/WX    TMP DP  RH WIND       PRES   REMARKS
CHARLOTTE      CLOUDY    66  57  72 VRB3      30.10R
MONROE         CLOUDY    64  58  80 VRB6      30.08F
WADESBORO      CLOUDY    64  55  72 S5        30.08F
ROCKINGHAM     FAIR      62  59  89 S7        30.09F
RUTHERFORDTON  LGT RAIN  62  55  80 S14G21    30.10F
ASHEVILLE      LGT RAIN  54  47  77 NW15      30.15R

$$




USA.gov is the U.S. government's official web portal to all federal, state and local government web resources and services.